BAW4KA UZTT-EGLL

Flight info

Callsign BAW4KA
Flight time N/A
Altitude 38000
Route MIKNO2A MIKNO L163 SIVKO M166 ARISA L736 TEDKI L96 SOMOG L864 IRGUM M987 NEDKU L749 BUGOR T509 GRD L979 ENOBI/N0428F380 DCT ELKAR T727 GONTU L23 WSN N125 SILQI N872 PAM L980 LOGAN
Aircraft A20N/M-SDE2E3FGHIRWXY/LB1

Departure

Time 2026-04-19 22:41
Airport Tashkent International Airport (UZTT)

Arrival

Time N/A
Airport London Heathrow Airport (EGLL)
Time Latitude Longitude Altitude Speed Heading
2026-04-19 22:19 41.26113 69.26696 1387 ft 0 kts 352°
2026-04-19 22:29 41.26116 69.26695 1387 ft 3 kts 345°
2026-04-19 22:29 41.26106 69.26705 1383 ft 3 kts 317°
2026-04-19 22:29 41.26091 69.26723 1383 ft 3 kts 314°
2026-04-19 22:30 41.26077 69.26743 1382 ft 3 kts 311°
2026-04-19 22:30 41.26064 69.26764 1383 ft 3 kts 308°
2026-04-19 22:30 41.26052 69.26785 1384 ft 3 kts 304°
2026-04-19 22:30 41.26041 69.26808 1386 ft 3 kts 297°
2026-04-19 22:31 41.26037 69.26820 1385 ft 1 kts 295°
2026-04-19 22:31 41.26036 69.26822 1385 ft 0 kts 295°
2026-04-19 22:32 41.26023 69.26790 1387 ft 8 kts 240°
2026-04-19 22:32 41.25994 69.26721 1385 ft 9 kts 243°
2026-04-19 22:33 41.25967 69.26641 1383 ft 12 kts 247°
2026-04-19 22:33 41.25925 69.26514 1387 ft 18 kts 242°
2026-04-19 22:33 41.25824 69.26393 1388 ft 20 kts 214°
2026-04-19 22:33 41.25739 69.26271 1396 ft 16 kts 234°
2026-04-19 22:34 41.25695 69.26152 1399 ft 13 kts 246°
2026-04-19 22:34 41.25657 69.26047 1395 ft 11 kts 229°
2026-04-19 22:34 41.25614 69.26016 1404 ft 2 kts 126°
2026-04-19 22:34 41.25616 69.26023 1404 ft 0 kts 78°
2026-04-19 22:39 41.25616 69.26024 1395 ft 1 kts 81°
2026-04-19 22:39 41.25621 69.26066 1408 ft 7 kts 81°
2026-04-19 22:40 41.25624 69.26094 1398 ft 0 kts 81°
2026-04-19 22:40 41.25625 69.26097 1400 ft 3 kts 81°
2026-04-19 22:40 41.25660 69.26442 1398 ft 74 kts 82°
2026-04-19 22:40 41.25765 69.27381 1410 ft 131 kts 81°
2026-04-19 22:41 41.25910 69.28739 1651 ft 153 kts 81°
2026-04-19 22:41 41.26047 69.30111 2373 ft 148 kts 82°
2026-04-19 22:41 41.26192 69.31498 2909 ft 159 kts 82°
2026-04-19 22:41 41.26376 69.33184 3144 ft 217 kts 83°
2026-04-19 22:42 41.26614 69.35341 3796 ft 249 kts 82°
2026-04-19 22:42 41.26820 69.37185 4517 ft 0 kts 82°
2026-04-19 22:43 41.26820 69.37184 4521 ft 0 kts 82°
2026-04-19 22:43 41.26820 69.37185 4519 ft 0 kts 92°
2026-04-19 22:44 41.26820 69.37183 4515 ft 0 kts 92°
2026-04-19 22:44 41.24111 69.39196 4503 ft 0 kts 219°
2026-04-19 22:44 41.24231 69.39396 4536 ft 0 kts 46°
2026-04-19 22:44 41.24231 69.39397 4555 ft 0 kts 46°